When you browse on this site, cookies collect data to enhance your experience and personalize the content and advertising you see.
Visit our Privacy Policy to learn more. By continuing to use the site, you agree to this use of cookies and data.
  • Em Portugal
  • Lista de países
  • Para 7 dias
  • Temperatura da água
  • Mapas de satélite
  • Mapa do tempo
  • Widgets de tempo
  • user-avatar
    Iniciar Sessão

    Previsão horária em Lugi

    Hoje, 18 Fevereiro, Segunda-feira

    Tempo Temperatura Precipitação Vento Pressão Humidade
    00:00 -6°C° 0 mm 5 m/s 739 mmHg 78%
    01:00 -5°C° 0 mm 4 m/s 740 mmHg 80%
    02:00 -7°C° 0 mm 4 m/s 741 mmHg 82%
    03:00 -7°C° 0 mm 4 m/s 741 mmHg 82%
    04:00 -7°C° 0 mm 4 m/s 742 mmHg 83%
    05:00 -7°C° 0 mm 4 m/s 742 mmHg 83%
    06:00 -7°C° 0 mm 3 m/s 743 mmHg 83%
    07:00 -7°C° 0 mm 3 m/s 744 mmHg 83%
    08:00 -7°C° 0 mm 3 m/s 744 mmHg 83%
    09:00 -6°C° 0 mm 3 m/s 745 mmHg 81%
    10:00 -6°C° 0 mm 3 m/s 745 mmHg 79%
    11:00 -4°C° 0 mm 2 m/s 745 mmHg 76%
    12:00 -4°C° 0 mm 2 m/s 745 mmHg 73%
    13:00 -4°C° 0 mm 2 m/s 745 mmHg 70%
    14:00 -3°C° 0 mm 2 m/s 746 mmHg 68%
    15:00 -2°C° 0 mm 1 m/s 746 mmHg 72%
    16:00 -3°C° 0 mm 1 m/s 746 mmHg 77%
    17:00 -3°C° 0 mm 1 m/s 746 mmHg 81%
    18:00 -4°C° 0 mm 1 m/s 745 mmHg 83%
    19:00 -4°C° 0 mm 1 m/s 745 mmHg 85%
    20:00 -4°C° 0 mm 1 m/s 745 mmHg 86%
    21:00 -6°C° 0 mm 2 m/s 745 mmHg 85%
    22:00 -6°C° 0 mm 2 m/s 745 mmHg 85%
    23:00 -7°C° 0 mm 3 m/s 745 mmHg 84%

    Amanhã, 19 Fevereiro, Terça-feira

    Tempo Temperatura Precipitação Vento Pressão Humidade
    00:00 -7°C° 0 mm 3 m/s 744 mmHg 83%
    01:00 -7°C° 0 mm 3 m/s 744 mmHg 81%
    02:00 -8°C° 0 mm 4 m/s 743 mmHg 80%
    03:00 -7°C° 0 mm 4 m/s 743 mmHg 78%
    04:00 -7°C° 0 mm 4 m/s 742 mmHg 76%
    05:00 -7°C° 0 mm 5 m/s 741 mmHg 75%
    06:00 -7°C° 0 mm 5 m/s 741 mmHg 75%
    07:00 -6°C° 0 mm 5 m/s 741 mmHg 76%
    08:00 -6°C° 0 mm 5 m/s 740 mmHg 77%
    09:00 -5°C° 0 mm 5 m/s 740 mmHg 76%
    10:00 -4°C° 0 mm 5 m/s 739 mmHg 76%
    11:00 -2°C° 0 mm 5 m/s 739 mmHg 75%
    12:00 -1°C° 0 mm 5 m/s 738 mmHg 76%
    13:00 -1°C° 0 mm 5 m/s 738 mmHg 76%
    14:00 0°C° 0 mm 5 m/s 737 mmHg 76%
    15:00 -1°C° 0 mm 5 m/s 737 mmHg 79%
    16:00 -2°C° 0 mm 5 m/s 736 mmHg 81%
    17:00 -2°C° 0 mm 5 m/s 735 mmHg 84%
    18:00 -2°C° 0 mm 5 m/s 735 mmHg 85%
    19:00 -2°C° 0 mm 5 m/s 734 mmHg 86%
    20:00 -2°C° 0 mm 5 m/s 734 mmHg 88%
    21:00 -3°C° 0 mm 6 m/s 733 mmHg 88%
    22:00 -3°C° 0 mm 6 m/s 732 mmHg 89%
    23:00 -2°C° 0 mm 6 m/s 732 mmHg 89%

    Depois de amanhã, 20 Fevereiro, Quarta-feira

    Tempo Temperatura Precipitação Vento Pressão Humidade
    00:00 -1°C° 0.1 mm 5 m/s 731 mmHg 90%
    01:00 -1°C° 0.1 mm 5 m/s 730 mmHg 90%
    02:00 -1°C° 0.1 mm 5 m/s 730 mmHg 91%
    03:00 -1°C° 0.3 mm 5 m/s 729 mmHg 90%
    04:00 -1°C° 0.3 mm 5 m/s 729 mmHg 90%
    05:00 0°C° 0.3 mm 5 m/s 729 mmHg 90%
    06:00 0°C° 0.1 mm 5 m/s 729 mmHg 91%
    07:00 0°C° 0.1 mm 5 m/s 729 mmHg 91%
    08:00 0°C° 0.1 mm 5 m/s 729 mmHg 92%
    09:00 0°C° 0.2 mm 5 m/s 729 mmHg 90%
    10:00 0°C° 0.2 mm 5 m/s 729 mmHg 88%
    11:00 0°C° 0.2 mm 5 m/s 729 mmHg 86%
    12:00 0°C° 0.1 mm 5 m/s 728 mmHg 84%
    13:00 0°C° 0.1 mm 5 m/s 728 mmHg 83%
    14:00 +1°C° 0.1 mm 5 m/s 728 mmHg 82%
    15:00 0°C° 0.2 mm 5 m/s 727 mmHg 83%
    16:00 0°C° 0.2 mm 5 m/s 727 mmHg 84%
    17:00 0°C° 0.2 mm 5 m/s 727 mmHg 85%
    18:00 -1°C° 0.4 mm 5 m/s 727 mmHg 83%
    19:00 -1°C° 0.4 mm 5 m/s 727 mmHg 80%
    20:00 -2°C° 0.4 mm 6 m/s 727 mmHg 78%
    21:00 -4°C° 0 mm 5 m/s 727 mmHg 79%
    22:00 -5°C° 0 mm 5 m/s 727 mmHg 80%
    23:00 -6°C° 0 mm 5 m/s 727 mmHg 81%

    21 Fevereiro, Quinta-feira

    Tempo Temperatura Precipitação Vento Pressão Humidade
    00:00 -6°C° 0.3 mm 5 m/s 727 mmHg 82%
    01:00 -6°C° 0.3 mm 6 m/s 728 mmHg 83%
    02:00 -5°C° 0.3 mm 6 m/s 728 mmHg 84%
    03:00 -6°C° 0.3 mm 6 m/s 728 mmHg 83%
    04:00 -6°C° 0.3 mm 6 m/s 728 mmHg 83%
    05:00 -7°C° 0.3 mm 7 m/s 728 mmHg 82%
    06:00 -7°C° 0.2 mm 7 m/s 729 mmHg 81%
    07:00 -8°C° 0.2 mm 7 m/s 729 mmHg 80%
    08:00 -8°C° 0.2 mm 7 m/s 730 mmHg 79%
    09:00 -8°C° 0.1 mm 7 m/s 731 mmHg 78%
    10:00 -8°C° 0.1 mm 7 m/s 731 mmHg 76%
    11:00 -9°C° 0.1 mm 7 m/s 732 mmHg 75%
    12:00 -9°C° 0.1 mm 7 m/s 733 mmHg 74%
    13:00 -9°C° 0.1 mm 7 m/s 734 mmHg 73%
    14:00 -9°C° 0.1 mm 7 m/s 734 mmHg 72%
    15:00 -9°C° 0.1 mm 7 m/s 735 mmHg 72%
    16:00 -11°C° 0.1 mm 7 m/s 736 mmHg 73%
    17:00 -10°C° 0.1 mm 6 m/s 737 mmHg 73%
    18:00 -10°C° 0 mm 6 m/s 738 mmHg 73%
    19:00 -11°C° 0 mm 6 m/s 739 mmHg 73%
    20:00 -11°C° 0 mm 6 m/s 740 mmHg 73%
    21:00 -12°C° 0 mm 6 m/s 741 mmHg 73%
    22:00 -12°C° 0 mm 6 m/s 742 mmHg 73%
    23:00 -14°C° 0 mm 6 m/s 743 mmHg 72%

    22 Fevereiro, Sexta-feira

    Tempo Temperatura Precipitação Vento Pressão Humidade
    00:00 -14°C° 0 mm 6 m/s 743 mmHg 73%
    01:00 -13°C° 0 mm 5 m/s 744 mmHg 74%
    02:00 -14°C° 0 mm 5 m/s 745 mmHg 74%
    03:00 -14°C° 0 mm 5 m/s 746 mmHg 75%
    04:00 -14°C° 0 mm 5 m/s 746 mmHg 76%
    05:00 -15°C° 0 mm 5 m/s 747 mmHg 77%
    06:00 -15°C° 0 mm 5 m/s 748 mmHg 75%
    07:00 -15°C° 0 mm 5 m/s 748 mmHg 74%
    08:00 -14°C° 0 mm 5 m/s 749 mmHg 72%
    09:00 -14°C° 0 mm 5 m/s 750 mmHg 70%
    10:00 -14°C° 0 mm 6 m/s 750 mmHg 68%
    11:00 -12°C° 0 mm 6 m/s 751 mmHg 65%
    12:00 -11°C° 0 mm 6 m/s 751 mmHg 64%
    13:00 -11°C° 0 mm 6 m/s 751 mmHg 63%
    14:00 -10°C° 0 mm 6 m/s 752 mmHg 61%
    15:00 -11°C° 0 mm 5 m/s 752 mmHg 65%
    16:00 -11°C° 0 mm 5 m/s 752 mmHg 69%
    17:00 -12°C° 0 mm 5 m/s 753 mmHg 72%
    18:00 -12°C° 0 mm 5 m/s 753 mmHg 74%
    19:00 -12°C° 0 mm 5 m/s 754 mmHg 76%
    20:00 -12°C° 0 mm 5 m/s 755 mmHg 78%
    21:00 -12°C° 0 mm 4 m/s 755 mmHg 81%
    22:00 -12°C° 0 mm 4 m/s 755 mmHg 83%
    23:00 -13°C° 0 mm 3 m/s 755 mmHg 86%

    23 Fevereiro, Sábado

    Tempo Temperatura Precipitação Vento Pressão Humidade
    00:00 -12°C° 0 mm 2 m/s 755 mmHg 87%
    01:00 -12°C° 0 mm 2 m/s 755 mmHg 89%
    02:00 -10°C° 0 mm 1 m/s 755 mmHg 91%
    03:00 -10°C° 0 mm 1 m/s 755 mmHg 88%
    04:00 -9°C° 0 mm 1 m/s 755 mmHg 85%
    05:00 -10°C° 0 mm 2 m/s 755 mmHg 82%
    06:00 -9°C° 0 mm 2 m/s 754 mmHg 77%
    07:00 -10°C° 0 mm 3 m/s 754 mmHg 72%
    08:00 -9°C° 0 mm 3 m/s 754 mmHg 67%
    09:00 -10°C° 0.1 mm 4 m/s 753 mmHg 70%
    10:00 -9°C° 0.1 mm 4 m/s 752 mmHg 74%
    11:00 -10°C° 0.1 mm 5 m/s 752 mmHg 77%
    12:00 -10°C° 0.6 mm 5 m/s 751 mmHg 82%
    13:00 -10°C° 0.6 mm 5 m/s 751 mmHg 86%
    14:00 -10°C° 0.6 mm 5 m/s 750 mmHg 91%
    15:00 -8°C° 0.3 mm 4 m/s 750 mmHg 91%
    16:00 -8°C° 0.3 mm 4 m/s 749 mmHg 90%
    17:00 -8°C° 0.3 mm 4 m/s 749 mmHg 89%
    18:00 -8°C° 0.1 mm 4 m/s 749 mmHg 90%
    19:00 -7°C° 0.1 mm 3 m/s 749 mmHg 91%
    20:00 -6°C° 0.1 mm 3 m/s 749 mmHg 92%
    21:00 -6°C° 0 mm 3 m/s 748 mmHg 93%
    22:00 -6°C° 0 mm 3 m/s 748 mmHg 94%
    23:00 -6°C° 0 mm 3 m/s 748 mmHg 94%
    Mostrar mais